Weather History for Milton, FL

Change the Weather History Date:

Wednesday, November 6, 2013

  Actual Average (KNSE) Record (KNSE)
Temperature  
Mean Temperature 67 °F -  
Max Temperature 77 °F 70 °F 84 °F (2003)
Min Temperature 57 °F 51 °F 37 °F (1998)
Cooling Degree Days 2    
Growing Degree Days 17 (Base 50)    
Moisture  
Dew Point 59 °F    
Average Humidity 76    
Maximum Humidity 90    
Minimum Humidity 60    
Precipitation  
Precipitation 0.00 in - - ()
Sea Level Pressure  
Sea Level Pressure 30.10 in    
Wind  
Wind Speed 6 mph (ESE)    
Max Wind Speed 10 mph    
Max Gust Speed -    
Visibility 10 miles    
Events      
Averages and records for this station are not official NWS values.
T = Trace of Precipitation, MM = Missing Value Source: NWS Daily Summary

Daily Weather History Graph

Daily Weather History Graph

Search for Another Location

Airport:

Trip Planner

Search our weather history database for the weather conditions in past years. The results will help you decide how hot, cold, wet, or windy it might be!

Date:

Astronomy

Nov. 06, 2013 Rise Set
Actual Time 6:07 AM CST 4:55 PM CST
Civil Twilight 5:41 AM CST 5:21 PM CST
Nautical Twilight 5:13 AM CST 5:49 PM CST
Astronomical Twilight 4:44 AM CST 6:18 PM CST
Moon 9:16 AM CST (11/6) 8:04 PM CST (11/6)
Length of Visible Light 11h 39m
Length of Day
10h 48m
Waxing Crescent, 14% of the Moon is Illuminated
Nov 6
Waxing Crescent
Nov 9
First Quarter
Nov 17
Full
Nov 25
Last Quarter
Dec 2
New

Hourly Weather History & Observations

Time (CST) Temp. Dew Point Humidity Pressure Visibility Wind Dir Wind Speed Gust Speed Precip Events Conditions
12:56 AM 59.0 °F 48.9 °F 69% 30.13 in 10.0 mi ENE 8.1 mph - N/A   Clear
1:56 AM 57.9 °F 50.0 °F 75% 30.12 in 10.0 mi ENE 5.8 mph - N/A   Clear
2:56 AM 57.0 °F 50.0 °F 77% 30.10 in 10.0 mi ENE 6.9 mph - N/A   Mostly Cloudy
3:56 AM 57.9 °F 50.0 °F 75% 30.11 in 10.0 mi NE 3.5 mph - N/A   Mostly Cloudy
4:56 AM 57.0 °F 51.1 °F 81% 30.12 in 10.0 mi Calm Calm - N/A   Overcast
5:56 AM 57.9 °F 51.1 °F 78% 30.13 in 10.0 mi Calm Calm - N/A   Mostly Cloudy
6:56 AM 61.0 °F 54.0 °F 78% 30.14 in 10.0 mi East 10.4 mph - N/A   Mostly Cloudy
7:15 AM 60.8 °F 55.4 °F 82% 30.18 in 10.0 mi East 9.2 mph - N/A   Overcast
7:56 AM 62.1 °F 55.9 °F 80% 30.15 in 10.0 mi East 9.2 mph - N/A   Overcast
8:56 AM 66.0 °F 59.0 °F 78% 30.15 in 10.0 mi East 8.1 mph - N/A   Overcast
9:56 AM 70.0 °F 61.0 °F 73% 30.15 in 10.0 mi ESE 9.2 mph - N/A   Mostly Cloudy
10:30 AM 71.6 °F 60.8 °F 69% 30.17 in 10.0 mi SE 10.4 mph - N/A   Mostly Cloudy
10:56 AM 72.0 °F 62.1 °F 71% 30.12 in 10.0 mi ESE 10.4 mph - N/A   Mostly Cloudy
11:56 AM 73.0 °F 63.0 °F 71% 30.11 in 10.0 mi South 8.1 mph - N/A   Mostly Cloudy
12:46 PM 73.4 °F 62.6 °F 69% 30.12 in 10.0 mi South 3.5 mph - N/A   Mostly Cloudy
12:56 PM 75.0 °F 63.0 °F 66% 30.08 in 10.0 mi Calm Calm - N/A   Mostly Cloudy
1:56 PM 75.9 °F 64.0 °F 67% 30.07 in 10.0 mi South 9.2 mph - N/A   Mostly Cloudy
2:56 PM 77.0 °F 62.1 °F 60% 30.06 in 10.0 mi SSE 10.4 mph - N/A   Scattered Clouds
3:56 PM 75.9 °F 62.1 °F 62% 30.05 in 10.0 mi South 6.9 mph - N/A   Scattered Clouds
4:56 PM 73.0 °F 63.0 °F 71% 30.06 in 10.0 mi Calm Calm - N/A   Scattered Clouds
5:56 PM 69.1 °F 63.0 °F 81% 30.07 in 10.0 mi Calm Calm - N/A   Scattered Clouds
6:56 PM 68.0 °F 63.0 °F 84% 30.07 in 10.0 mi Calm Calm - N/A   Mostly Cloudy
7:56 PM 69.1 °F 64.0 °F 84% 30.07 in 10.0 mi Calm Calm - N/A   Mostly Cloudy
8:56 PM 68.0 °F 63.0 °F 84% 30.06 in 10.0 mi Calm Calm - N/A   Mostly Cloudy
9:56 PM 68.0 °F 63.0 °F 84% 30.06 in 10.0 mi ESE 3.5 mph - N/A   Scattered Clouds
10:56 PM 64.9 °F 62.1 °F 90% 30.05 in 10.0 mi Calm Calm - N/A   Scattered Clouds
11:56 PM 64.9 °F 62.1 °F 90% 30.04 in 10.0 mi Calm Calm - N/A   Overcast